THOR ABLESTAR DEB, 324

Orbit data source: Space-Track

THOR ABLESTAR DEB, 324 is space debris in LEO originally from a launch on Thu, 29 Jun 1961 UTC launched from the Air Force Eastern Test Range (AFETR). Debris objects in space refer to the collection of defunct objects orbiting the Earth. Examples of debris include non-operational satellites, rocket bodies, and fragments generated from explosions, collisions, or faulty payload assembly.

Loading next visibility...
Identifier
324, 1961-015DA
Orbit
LEO
Country
Flag of USUS
Related business
Manufacturer
Unknown
Mission
Spacecraft
Bus & Motor
Unknown
Mass
Unknown
Launch date (UTC)
1961-06-29 (65 years ago)
Launch vehicle
Unknown
Launch site
Air Force Eastern Test Range (AFETR)
Object type
Payload
Rocket body
Debris
Shape & HBR
Unknown shape, 0.1 m
Radar Cross Section
Small (<0.1 m²)

Expand to show TLE details & history
Last TLE update: 12 hours ago

TLE from 12 hours ago
0 THOR ABLESTAR DEB
1   324U 61015DA  26127.44671977  .00000125  00000-0  10771-3 0  9992
2   324  66.8614 134.0575 0060613  54.6494 306.0241 14.13333322317311
Epoch: 2026-05-07T10:43Z
TLE epoch observation values (Epoch: 2026-05-07T10:43:16.588Z)
Latitude
0.00001°
Longitude
107.94565°
Altitude
824.502 km
Speed
7.454 km/s
True Right ascension
08h 56m 13s
True Declination
0° 00' 00"
Sunlit
Object was in daylight at epoch
Visualization orbit readout
Latitude
Unknown
Longitude
Unknown
Altitude
Unknown
Speed
Unknown
Apparent Right ascension
Unknown
Apparent Declination
Unknown
Sunlit
N/A
Visualization observer readout
Local Sidereal Time
06:43:38
Azimuth
Unknown
Elevation
Unknown
Doppler factor
Unknown
Orbital elements
Apogee altitude
890.146 km
Perigee altitude
802.567 km
Semi-major axis
7,224.493 km
Eccentricity
0.00606
Inclination
66.8614°
RAAN
134.0575°
Arg. of periapsis
54.6494°
True anomaly
305.45984°
Mean anomaly
306.0241°
Eccentric anomaly
305.74222°
Mean motion
3.53453 °/min
Orbital period
101.85 mins
BSTAR
0.00010771
Loading maneuver chart data...
Computing Atmospheric mass density...

Documentation

Showing up to 5 results
|